Flag for West Bank Weather past 2 weeks in Tulkarm, West Bank

Now
73 °F

Passing clouds.


Feels Like: 76 °F
Forecast: 55 / 87 °F
Wind: 12 mph from Southwest

Location: Dov Airport


UV Index: 7 (High)

Visibility: N/A


Pressure: 29.83 "Hg

Humidity: 69%

Dew point: 63 °F

Location of TulkarmLocation

Historic Weather in Tulkarm

°F

Tulkarm temperature yesterday

Maximum temperature yesterday: 77 °F (at 9:50 AM)
Minimum temperature yesterday: 66 °F (at 5:50 AM)
Average temperature yesterday: 71 °F

Past Weeks' High & Low Weather Summary

 TemperatureHumidityPressure
High86 °F (Apr 7, 9:50 AM)88% (Apr 5, 6:50 AM)30.12 "Hg (Apr 5, 6:50 AM)
Low57 °F (Apr 3, 5:50 AM)19% (Apr 7, 9:50 AM)29.80 "Hg (Apr 7, 5:50 AM)
Average68 °F66%29.95 "Hg
* Reported Apr 2 11:50 AM — Apr 17 11:50 AM, Tulkarm, Weather by CustomWeather, © 2014

Note: Actual official high and low records may vary slightly from our data, if they occured in-between our weather recording intervals... More about our weather records

Advertising

Historic Weather Conditions — Data for Previous 24 hours

 ConditionsComfort  
Time TempWeatherWind HumidityBarometerVisibility
11:50 AM
Apr 17
73 °FPassing clouds.12 mph69%29.83 "HgN/A
10:50 AM75 °FPassing clouds.9 mph69%29.83 "HgN/A
9:50 AM72 °FPassing clouds.9 mph73%29.83 "HgN/A
8:50 AM70 °FPassing clouds.7 mph83%29.83 "HgN/A
7:50 AM68 °FPartly sunny.6 mph83%29.80 "HgN/A
6:50 AM66 °FPassing clouds.3 mph88%29.80 "HgN/A
5:50 AM66 °FPartly cloudy.5 mph88%29.80 "Hg6 mi
11:50 PM
Apr 16
68 °FClear.5 mph83%29.80 "Hg10 mi
10:50 PM68 °FClear.6 mph83%29.80 "Hg10 mi
9:50 PM68 °FClear.6 mph78%29.80 "Hg10 mi
8:50 PM68 °FClear.6 mph78%29.80 "Hg10 mi
7:50 PM70 °FSunny.10 mph73%29.80 "Hg10 mi
6:50 PM70 °FSunny.12 mph73%29.80 "Hg10 mi
5:50 PM72 °FSunny.15 mph69%29.80 "Hg10 mi
4:50 PM73 °FSunny.14 mph69%29.80 "Hg10 mi
3:50 PM73 °FSunny.14 mph69%29.83 "Hg10 mi
2:50 PM72 °FSunny.13 mph73%29.83 "Hg10 mi
1:50 PM72 °FSunny.10 mph73%29.86 "Hg10 mi
12:50 PM73 °FPassing clouds.9 mph69%29.86 "HgN/A
Weather by CustomWeather, © 2014

See weather overview